Home > Weather > Houston > Past weeks

Flag for U.S.A. Weather for the Past 2 Weeks in Houston, Texas, U.S.A.

Now
59 °F

Partly cloudy.


Feels Like: 58 °F
Forecast: 61 / 74 °F
Wind: 6 mph from Southeast

Location: Houston Hobby Airport

Current Time: Feb 13, 2016 at 10:47:01 PM

Latest Report: Feb 13, 2016 at 9:53 PM


Visibility: 10 mi

Pressure: 30.24 "Hg

Humidity: 84%

Dew point: 54 °F

Location of HoustonLocation

Historic Weather in Houston — Graph

°F

Houston Temperature Yesterday

Maximum temperature yesterday: 79 °F (at 3:53 PM)
Minimum temperature yesterday: 51 °F (at 6:53 AM)
Average temperature yesterday: 65 °F

High & Low Weather Summary for the Past Weeks

 TemperatureHumidityPressure
High79 °F (Feb 12, 3:53 PM)100% (Jan 30, 7:53 AM)30.51 "Hg (Jan 30, 7:53 AM)
Low37 °F (Feb 5, 6:53 AM)10% (Feb 8, 4:53 PM)29.62 "Hg (Feb 2, 12:53 AM)
Average58 °F58%30.17 "Hg
* Reported Jan 29 8:53 PM — Feb 13 8:53 PM, Houston, Weather by CustomWeather, © 2016

Note: Actual official high and low records may vary slightly from our data, if they occured in-between our weather recording intervals... More about our weather records

Advertising

Houston Weather History for the Previous 24 Hours

 ConditionsComfort  
Time TempWeatherWind HumidityBarometerVisibility
8:53 PM
Sat, Feb 13
59 °FPartly cloudy.9 mph81%30.24 "Hg10 mi
7:53 PM60 °FPassing clouds.10 mph78%30.27 "Hg10 mi
6:53 PM60 °FPassing clouds.12 mph78%30.27 "Hg10 mi
5:53 PM61 °FPartly sunny.10 mph72%30.27 "Hg10 mi
4:53 PM63 °FPartly sunny.12 mph68%30.28 "Hg10 mi
3:53 PM65 °FScattered clouds.14 mph66%30.28 "Hg10 mi
2:53 PM66 °FScattered clouds.12 mph63%30.30 "Hg10 mi
1:53 PM67 °FScattered clouds.10 mph59%30.32 "Hg10 mi
12:53 PM66 °FPartly sunny.10 mph61%30.35 "Hg10 mi
11:53 AM65 °FPartly sunny.12 mph61%30.37 "Hg10 mi
10:53 AM65 °FScattered clouds.14 mph61%30.38 "Hg10 mi
9:53 AM63 °FScattered clouds.14 mph58%30.39 "Hg10 mi
8:53 AM61 °FScattered clouds.10 mph67%30.38 "Hg10 mi
7:53 AM59 °FPartly sunny.8 mph81%30.36 "Hg10 mi
6:53 AM58 °FPassing clouds.6 mph87%30.35 "Hg10 mi
5:53 AM59 °FPartly cloudy.5 mph90%30.33 "Hg10 mi
4:53 AM61 °FPassing clouds.No wind83%30.31 "Hg10 mi
3:53 AM58 °FPassing clouds.No wind90%30.29 "Hg10 mi
2:53 AM56 °FPassing clouds.No wind90%30.29 "Hg10 mi
1:53 AM56 °FClear.No wind93%30.29 "Hg10 mi
12:53 AM58 °FClear.No wind87%30.29 "Hg10 mi
11:53 PM
Fri, Feb 12
60 °FClear.3 mph83%30.29 "Hg10 mi
10:53 PM61 °FClear.No wind83%30.29 "Hg10 mi
Weather by CustomWeather, © 2016

See weather overviewHow to use our weather pages